Content
SEND FEEDBACK

Daily
Averages
Monthly
Summary
United States of America

CHESTERFIELD, MISSOURI


Home > North America > United States > Missouri
Elevation: 170 meters     Latitude: 38 41N     Longitude: 090 31W

WEATHER
 
SELECT A DAY
Number of Records: 206,587;   Date Range: 1/1/95 - 10/24/14
 
SHARE

PRINT THIS DATA

[ ← Previous Day ]
WEATHER ALMANAC - 3 APRIL, 2013
[ Next Day → ]
[ °F ]   °C
Weather ElementAverageHighLow
Temperature6.7 °C11.1 °C (3:51 pm)0.6 °C (6:51 am)
Dewpoint-6.5 °C-5 °C (7:51 pm)-8.3 °C (12:51 pm)
Humidity40.2 %59 % (6:51 am)28 % (12:51 pm)
Barometer1027.4 hPa1030.1 hPa (7:51 am)1025.4 hPa (11:51 pm)
Wind Speed13 km/h24.1 km/h (2:51 pm)
Wind Gust31.5 km/h (2:51 pm)
Weather ElementAverage
Visibility16.1 km
Wind DirectionENE (56.5 °)

Weather ElementTotal
Precipitation---
Heating Degree Days12.5 (Base 18.3)
Averaged from 23 records on 3 April, 2013
WEATHER CONDITIONS BREAKOUT
WIND DIRECTION BREAKOUT
WEATHER BY HOUR - 3 APRIL, 2013
[ °F ]   °C
Local TimeTemperatureDewpointHumidityBarometerVisibilityWind DirectionWind SpeedGust SpeedPrecipitationEventsConditions
1:51 AM4.4 °C-7.8 °C41 %1027.4 hPa16.1 kmNNE (30°)11.1 km/hScattered Clouds
2:51 AM3.3 °C-7.2 °C47 %1027.1 hPa16.1 kmNNE (30°)14.8 km/hScattered Clouds
3:51 AM2.2 °C-6.7 °C52 %1027.8 hPa16.1 kmNE (40°)11.1 km/hScattered Clouds
4:51 AM1.7 °C-6.7 °C54 %1027.4 hPa16.1 kmNNE (30°)7.4 km/hPartly Cloudy
5:51 AM1.1 °C-6.7 °C56 %1027.8 hPa16.1 kmNNE (20°)13 km/hPartly Cloudy
6:51 AM0.6 °C-6.7 °C59 %1029.1 hPa16.1 kmNNE (30°)7.4 km/hScattered Clouds
7:51 AM1.7 °C-6.1 °C57 %1030.1 hPa16.1 kmNE (40°)5.6 km/hMostly Cloudy
8:51 AM3.9 °C-6.1 °C49 %1030.1 hPa16.1 kmNNE (30°)7.4 km/hPartly Cloudy
9:51 AM6.1 °C-7.2 °C38 %1029.8 hPa16.1 kmENE (60°)14.8 km/hPartly Cloudy
10:51 AM7.2 °C-7.8 °C34 %1029.8 hPa16.1 kmCalmPartly Cloudy
11:51 AM8.9 °C-7.2 °C32 %1029.5 hPa16.1 kmEast (100°)16.7 km/hPartly Cloudy
12:51 PM9.4 °C-8.3 °C28 %1028.4 hPa16.1 kmENE (60°)14.8 km/hScattered Clouds
1:51 PM10 °C-7.2 °C29 %1027.8 hPa16.1 kmEast (90°)18.5 km/hPartly Cloudy
2:51 PM10.6 °C-7.2 °C28 %1027.1 hPa16.1 kmENE (70°)24.1 km/h31.5 km/hScattered Clouds
3:51 PM11.1 °C-6.7 °C28 %1027.1 hPa16.1 kmENE (60°)16.7 km/hMostly Cloudy
4:51 PM11.1 °C-6.1 °C30 %1026.4 hPa16.1 kmNE (50°)22.2 km/hMostly Cloudy
5:51 PM10.6 °C-5.6 °C32 %1026.1 hPa16.1 kmENE (70°)13 km/hMostly Cloudy
6:51 PM10 °C-6.1 °C32 %1026.1 hPa16.1 kmEast (90°)16.7 km/hOvercast
7:51 PM8.3 °C-5 °C39 %1026.1 hPa16.1 kmEast (80°)13 km/hOvercast
8:51 PM8.3 °C-5 °C39 %1025.7 hPa16.1 kmENE (70°)13 km/hOvercast
9:51 PM8.3 °C-5 °C39 %1026.1 hPa16.1 kmEast (90°)14.8 km/hOvercast
10:51 PM7.8 °C-5.6 °C39 %1025.7 hPa16.1 kmEast (80°)13 km/hMostly Cloudy
11:51 PM6.7 °C-5 °C43 %1025.4 hPa16.1 kmEast (80°)11.1 km/hMostly Cloudy
Hourly data recorded from KSTL, located 0 kilometers away from Chesterfield, Missouri







STORIES FROM OUR PARTNERS